Regional Weather Roundup
Issued by NWS Wakefield, VA

Home | Current Version | Previous Version | Graphics & Text | Print | Product List | Glossary On
Versions: 1 2 3 4 5 6 7 8 9 10 11 12 13 14 15 16 17 18 19 20 21 22 23 24 25 26 27 28 29 30 31 32 33 34 35 36 37 38 39 40 41 42 43 44 45 46 47 48 49 50
000
ASUS41 KAKQ 200214
RWRAKQ

REGIONAL WEATHER ROUNDUP
NATIONAL WEATHER SERVICE WAKEFIELD VA
1000 PM EDT SUN APR 19 2015

Note: "fair" indicates few or no clouds below 12,000 feet with no
significant weather and/or obstructions to visibility. * = Denotes
station may not report precipitation (e.g., rain,snow,etc.),
thunder or fog.

VAZ042-051-052>054-056-200300-
NORTHERN VIRGINIA

CITY           SKY/WX    TMP DP  RH WIND       PRES   REMARKS
WASH NATIONAL  RAIN      55  50  83 E10       29.98F
DULLES         LGT RAIN  51  48  89 E14G21    29.94F
FORT BELVOIR   LGT RAIN  52  50  92 VRB5      29.96F FOG
QUANTICO       LGT RAIN  55  51  86 E15       29.95F
FREDERICKSBRG* RAIN      56  56 100 E12G18    29.92F
STAFFORD*      RAIN      53  32  44 E14G21    29.97F
WARRENTON      DRIZZLE   53  53  98 E10       29.91F
CULPEPER*      DRIZZLE   54  54 100 E7        29.91F
MANASSAS*      LGT RAIN  52  52 100 E7G20     29.95F
LEESBURG*      RAIN      52  50  93 E13G18    29.96F
WINCHESTER     DRIZZLE   50  43  76 E5        29.95F
FRONT ROYAL*   CLOUDY    50  48  93 NE3       29.91F
LURAY*         DRIZZLE   54  54 100 NE8G17    29.89F
$$

VAZ048-049-060>072-079>083-200300-
CENTRAL AND SOUTH CENTRAL VIRGINIA

CITY           SKY/WX    TMP DP  RH WIND       PRES   REMARKS
RICHMOND       LGT RAIN  61  58  90 E12       29.87F FOG
CHESTERFIELD*  NOT AVBL
PETERSBURG*    LGT RAIN  64  63  96 E8        29.86F
HANOVER        LGT RAIN  57  57 100 VRB7      29.90F FOG
TAPPAHANNOCK*  RAIN      58  55  88 E13G21    29.94F
QUINTON*       CLOUDY    60  59  98 SE7G20    29.90F
CHARLOTTSVILLE RAIN      55  53  93 NE9       29.86F FOG
GORDONSVILLE*  CLOUDY    54  53  96 E10G18    29.87F FOG
ORANGE*        RAIN      55  54  94 NE9       29.91F
LOUISA*        RAIN      55  54  94 E10G20    29.86F
BUMPASS*       CLOUDY    55  54  97 E9G16     29.88F
FARMVILLE*     RAIN      63  63 100 E10G18    29.79F
CREWE*         CLOUDY    62  61  96 SE6       29.82F
FORT PICKETT*  CLOUDY    62  61  97 E13       29.83F
CHASE CITY*    CLOUDY    65  65 100 SE9G20    29.79F
CLARKSVILLE*   CLOUDY    63  63 100 E10G17    29.78F
SOUTH HILL*    CLOUDY    63  62  98 SE6       29.88F
LAWRENCEVILLE* CLOUDY    63  63 100 SE5       29.84F
EMPORIA*       RAIN      63  63 100 E12G17    29.86F
$$

VAZ088>098-200300-
SOUTHEAST VIRGINIA

CITY           SKY/WX    TMP DP  RH WIND       PRES   REMARKS
NORFOLK        RAIN      64  61  90 SE14      29.92F
VIRGINIA BEACH LGT RAIN  64  60  87 SE17      29.92F
NORFOLK NAVAL  LGT RAIN  68  62  81 SE12      29.92F
WEST POINT*    CLOUDY    63  60  91 E10       29.93F
SALUDA*        CLOUDY    58  58  97 SE10G23   29.94F
NEWPORT NEWS   RAIN      64  60  87 E8        29.92F FOG
LANGLEY AFB    LGT RAIN  61  61 100 E10       29.90F FOG
FORT EUSTIS    LGT RAIN  62  62 100 E8        29.89F FOG
WILLIAMSBURG*  CLOUDY    64  64 100 MISG      29.91F
HR EXEC AP*    CLOUDY    66  63  88 SE12      29.93F
FRANKLIN*      RAIN     N/A N/A N/A SE7       29.88F
WAKEFIELD      LGT RAIN  65  63  93 VRB5      29.89F FOG
$$

VAZ020-022-025-037-045-200300-
WEST CENTRAL AND SOUTHWEST VIRGINIA

CITY           SKY/WX    TMP DP  RH WIND       PRES   REMARKS
STAUNTON*      RAIN      56  52  88 CALM      29.85F
WAYNESBORO*    CLOUDY    54  53  96 NE5       29.83F
HOT SPRINGS VA HVY RAIN  49  49 100 E10G16    29.79F VSB<1/4
LYNCHBURG      RAIN      59  58  96 E7        29.78F
DANVILLE       LGT RAIN  63  61  93 VRB6      29.74F
SOUTH BOSTON*  CLOUDY    63  61  94 E12       29.77F
MARTINSVILLE   HVY RAIN  61  61 100 CALM      29.74F
ROANOKE        LGT RAIN  57  57 100 N5        29.77F
BLACKSBURG     RAIN     N/A N/A N/A NE7G16    29.77F
DUBLIN*        RAIN      55  55 100 NE7       29.76F
MARION*        RAIN      56  55  94 E6        29.76S
HILLSVILLE*    RAIN      55  55 100 NE6       29.74S
RICHLANDS*     RAIN      57  55  92 SE9       29.70F
WISE*          CLOUDY    61  61 100 SE6       29.70S
ABINGDON*      MOCLDY    63  62  97 NE3       29.70R
$$

MDZ021>025-VAZ099-100-200300-
SOUTHERN MARYLAND AND THE DELMARVA PENINSULA

CITY           SKY/WX    TMP DP  RH WIND       PRES   REMARKS
PATUXENT RIVER LGT RAIN  55  53  93 E21G28    29.96F FOG
BAY BRIDGE APT DRIZZLE   52  48  87 E15G26    30.02F
LEONARDTOWN    CLOUDY    54  52  94 E12G20    29.99F
DOVER          CLOUDY    52  50  93 E23G29    30.02F
GEORGETOWN     CLOUDY    52  47  83 E16G22    30.06F
EASTON         CLOUDY    53  50  90 E13G18    30.06F
CAMBRIDGE      CLOUDY    54  48  82 E18G25    30.00F
SALISBURY      LGT RAIN  54  49  83 E15       30.02F
OCEAN CITY     CLOUDY    51  48  89 E12G20    30.04F
WALLOPS ISLAND LGT RAIN  57  55  93 E17G26    30.01F
ACCOMACK*      RAIN      59  55  88 E15G23    29.97F
$$

NCZ012>017-030>032-200300-
NORTH CENTRAL AND EASTERN NORTH CAROLINA

CITY           SKY/WX    TMP DP  RH WIND       PRES   REMARKS
ROANOKE RAPIDS CLOUDY    64  64 100 SE7       29.84F
RALEIGH        LGT RAIN  68  66  93 S16G24    29.80S FOG
ELIZABETH CITY LGT RAIN  66  64  93 SE18G25   29.92F
AHOSKIE*       RAIN      65  64  96 SE7       29.87F
EDENTON*       RAIN      66  65  95 SE9G16    29.90F
CURRITUCK*     LGT RAIN  65  63  91 SE8       29.94F
KILL DEVIL HLS LGT RAIN  62  61  97 SE13G21   29.93F
MANTEO         LGT RAIN  64  63  94 SE15G21   29.94F
CAPE HATTERAS  LGT RAIN  68  63  84 SE18G31   29.94F
TARBORO*       DRIZZLE   67  65  94 SE6       29.86F
GOLDSBORO      LGT RAIN  69  67  95 SE7       29.82F
WASHINGTON     CLOUDY    68  66  94 S9        29.89F
GREENVILLE     RAIN      68  68 100 SE8       29.89F
NEW BERN       CLOUDY    69  66  90 S9        29.90S
WILMINGTON     LGT RAIN  70  68  93 S8        29.86S
$$

VAZ048-200300-
ELSEWHERE

CITY           SKY/WX    TMP DP  RH WIND       PRES   REMARKS
HARRISBURG PA  LGT RAIN  53  36  52 E15       30.03F
BALTIMORE      LGT RAIN  52  47  83 E17       30.01F
ANNAPOLIS      LGT RAIN  53  47  79 E15       30.01F
ANDREWS AFB    LGT RAIN  52  50  93 E23       29.98F
PHILADELPHIA   LGT RAIN  50  39  66 E14       30.12F
HENDERSON NC   RAIN      65  64  95 SE8       29.79F
GREENSBORO     CLOUDY    67  64  90 S20G26    29.70F
ROCKY MOUNT    RAIN      68  66  93 S10G20    29.83F FOG
$$

VAZ100-200300-
MARINE

STATION/POSITION TIME  TEMP    WIND        PRES    WAVE   SWELL
                       AIR SEA DIR/SP/G            HT/PER HT/PER
                 (UTC) (F)     (DEG/KT/KT) (MB)    (FT/S) (FT/S)
BRANDYWINE LGT   0100   49 50   90/ 22/ 25 1019.1F
CAPE MAY NJ      0100   49 56   80/ 12/ 18 1019.3F
LEWES DE         0100   49 53   90/ 19/ 22 1018.7F
15NM E FENWICK I 0150   50 47              1017.6F   5/ 8
OCEAN-CITY-INLET 0100   51 51   80/ 10/ 14 1018.0S
WACHAPREAGUE VA  0100   56 61   80/ 18/ 20 1015.8F
THOMAS POINT MD  0200   53 55  100/ 22/ 25 1016.2F
GOOSES REEF MD   0200   53 53  110/ 21/ 27   N/A     2/ 3
COVE POINT MD    0100   54     120/ 15/ 18 1016.1F
SOLOMONS ISLAND  0100      56                N/A
BISHOPS HEAD MD  0100   56 61   90/ 21/ 31 1015.4F
PINEY POINT MD   0106          110/ 21/ 26   N/A
CAMBRIDGE MD     0100   54 60   80/ 17/ 23 1016.6F
LEWISETTA VA     0100   57 62              1014.8F
RAPPAHANNOCK LGT 0100           90/ 23/ 25 1015.3F
STINGRAY PT      0200   58 57  110/ 17/ 19 1014.4F   3/ 3
YORK RVR RNG VA  0100   58     120/ 17/ 19 1013.7S
YORKTOWN VA      0100   60 59  100/ 16/ 19 1013.8F
DOMINION TERM VA 0100   63     100/ 10/ 13 1013.8F
KIPTOPEKE VA     0100      61  110/ 14/ 18   N/A
CHES BAY BRIDGE  0100   58 56   80/ 13/ 16 1013.8F
CAPE HENRY VA    0100   58     120/ 10/ 13 1013.1F
CHESAPEAKE LGHT  0100   58     110/ 25/ 26 1014.5F
WILLOUBY STN VA  0100   60      80/ 11/ 12 1014.4F
S CRANEY ISL VA  0100          130/ 11/ 16 1013.7F
CAPE HENRY BUOY  0128      52                N/A     6/ 8   2/13
1ST LANDING BUOY 0200   57     120/ 16/ 17 1013.1F   2/ 4
OFFSHORE WE BUOY 0111      50                N/A     6/ 8   2/11
64NM E OF VA BCH 0150   66 59  130/ 17/ 19 1014.7F   8/ 8   5/ 8
DUCK PIER NC     0100   60 57  130/ 13/ 15 1013.4F
44056 DUCK FRF   0111      57                N/A     5/ 7   2/13
OREGON INLET NC  0100   61 63  110/  8/ 12 1014.4F
HATTERAS NC      0100   71 67  140/ 16/ 21 1013.6R
DIAMOND SHLS NC  0150   73 72  150/ 25/ 31 1013.4F   8/ 6   2/12
CAPE LOOKOUT NC  0200   69     150/ 18/ 21 1012.3F
$$



USA.gov is the U.S. government's official web portal to all federal, state and local government web resources and services.